When you browse on this site, cookies collect data to enhance your experience and personalize the content and advertising you see.
Visit our Privacy Policy to learn more. By continuing to use the site, you agree to this use of cookies and data.
  • In France
  • List of Countries
  • For 7 days
  • Water Temperature
  • Satellite Maps
  • Weather Map
  • Weather Widgets
  • user-avatar
    Login

    Hourly Weather Fier

    Today, 17 November, Saturday

    Time Temperature Precipitation Wind Pressure Humidity
    00:00 +10°C° 0.3 mm 4 mps 763 mmHg 71%
    01:00 +8°C° 0 mm 4 mps 763 mmHg 71%
    02:00 +8°C° 0.2 mm 4 mps 763 mmHg 72%
    03:00 +8°C° 0.2 mm 4 mps 763 mmHg 73%
    04:00 +9°C° 0.2 mm 3 mps 763 mmHg 74%
    05:00 +8°C° 0.1 mm 4 mps 763 mmHg 74%
    06:00 +8°C° 0.1 mm 4 mps 763 mmHg 74%
    07:00 +8°C° 0.1 mm 4 mps 763 mmHg 74%
    08:00 +10°C° 0.1 mm 4 mps 763 mmHg 69%
    09:00 +11°C° 0.1 mm 4 mps 763 mmHg 64%
    10:00 +12°C° 0.1 mm 5 mps 763 mmHg 60%
    11:00 +12°C° 0.3 mm 5 mps 763 mmHg 59%
    12:00 +13°C° 0.3 mm 4 mps 762 mmHg 58%
    13:00 +13°C° 0.3 mm 4 mps 762 mmHg 57%
    14:00 +12°C° 0.1 mm 4 mps 762 mmHg 59%
    15:00 +12°C° 0.1 mm 4 mps 762 mmHg 61%
    16:00 +10°C° 0.1 mm 5 mps 762 mmHg 63%
    17:00 +10°C° 0.3 mm 5 mps 762 mmHg 66%
    18:00 +10°C° 0.3 mm 4 mps 762 mmHg 69%
    19:00 +8°C° 0.3 mm 4 mps 762 mmHg 72%
    20:00 +8°C° 0.6 mm 4 mps 762 mmHg 73%
    21:00 +8°C° 0.6 mm 4 mps 762 mmHg 73%
    22:00 +8°C° 0.6 mm 4 mps 762 mmHg 74%
    23:00 +8°C° 0.2 mm 5 mps 762 mmHg 74%

    Tomorrow, 18 November, Sunday

    Time Temperature Precipitation Wind Pressure Humidity
    00:00 +8°C° 0.2 mm 5 mps 762 mmHg 74%
    01:00 +8°C° 0.2 mm 5 mps 762 mmHg 74%
    02:00 +8°C° 0.4 mm 5 mps 761 mmHg 75%
    03:00 +8°C° 0.4 mm 4 mps 761 mmHg 75%
    04:00 +8°C° 0.4 mm 4 mps 761 mmHg 76%
    05:00 +8°C° 0.6 mm 4 mps 760 mmHg 76%
    06:00 +8°C° 0.6 mm 4 mps 760 mmHg 76%
    07:00 +8°C° 0.6 mm 5 mps 760 mmHg 76%
    08:00 +8°C° 1.1 mm 5 mps 760 mmHg 77%
    09:00 +8°C° 1.1 mm 4 mps 759 mmHg 77%
    10:00 +10°C° 1.1 mm 4 mps 759 mmHg 77%
    11:00 +10°C° 1.5 mm 4 mps 759 mmHg 77%
    12:00 +10°C° 1.5 mm 4 mps 758 mmHg 78%
    13:00 +10°C° 1.5 mm 4 mps 758 mmHg 78%
    14:00 +10°C° 0.6 mm 4 mps 758 mmHg 78%
    15:00 +10°C° 0.6 mm 4 mps 757 mmHg 79%
    16:00 +8°C° 0.6 mm 4 mps 757 mmHg 79%
    17:00 +8°C° 0.1 mm 4 mps 757 mmHg 79%
    18:00 +9°C° 0.1 mm 3 mps 757 mmHg 80%
    19:00 +9°C° 0.1 mm 3 mps 757 mmHg 80%
    20:00 +9°C° 0 mm 3 mps 757 mmHg 80%
    21:00 +8°C° 0 mm 3 mps 757 mmHg 80%
    22:00 +8°C° 0 mm 2 mps 757 mmHg 80%
    23:00 +8°C° 0 mm 2 mps 757 mmHg 79%

    Day after tomorrow, 19 November, Monday

    Time Temperature Precipitation Wind Pressure Humidity
    00:00 +8°C° 0 mm 2 mps 757 mmHg 79%
    01:00 +8°C° 0 mm 2 mps 756 mmHg 79%
    02:00 +7°C° 0 mm 2 mps 756 mmHg 78%
    03:00 +7°C° 0 mm 2 mps 756 mmHg 77%
    04:00 +7°C° 0 mm 2 mps 756 mmHg 77%
    05:00 +7°C° 0 mm 2 mps 757 mmHg 76%
    06:00 +8°C° 0 mm 2 mps 757 mmHg 76%
    07:00 +8°C° 0 mm 2 mps 757 mmHg 75%
    08:00 +10°C° 0 mm 2 mps 757 mmHg 72%
    09:00 +13°C° 0 mm 2 mps 757 mmHg 68%
    10:00 +14°C° 0 mm 2 mps 758 mmHg 65%
    11:00 +15°C° 0 mm 2 mps 757 mmHg 63%
    12:00 +16°C° 0 mm 3 mps 757 mmHg 62%
    13:00 +16°C° 0 mm 3 mps 757 mmHg 60%
    14:00 +16°C° 0.1 mm 3 mps 757 mmHg 64%
    15:00 +14°C° 0.1 mm 4 mps 757 mmHg 69%
    16:00 +13°C° 0.1 mm 4 mps 757 mmHg 73%
    17:00 +13°C° 0.8 mm 5 mps 757 mmHg 76%
    18:00 +12°C° 0.8 mm 5 mps 757 mmHg 79%
    19:00 +11°C° 0.8 mm 6 mps 757 mmHg 81%
    20:00 +11°C° 1.8 mm 6 mps 757 mmHg 81%
    21:00 +11°C° 1.8 mm 7 mps 757 mmHg 81%
    22:00 +11°C° 1.8 mm 7 mps 757 mmHg 80%
    23:00 +11°C° 1.2 mm 8 mps 757 mmHg 79%

    20 November, Tuesday

    Time Temperature Precipitation Wind Pressure Humidity
    00:00 +11°C° 1.2 mm 8 mps 757 mmHg 79%
    01:00 +12°C° 1.2 mm 8 mps 757 mmHg 78%
    02:00 +12°C° 0.5 mm 9 mps 756 mmHg 77%
    03:00 +12°C° 0.5 mm 9 mps 756 mmHg 76%
    04:00 +12°C° 0.5 mm 9 mps 756 mmHg 75%
    05:00 +12°C° 0.7 mm 9 mps 756 mmHg 74%
    06:00 +12°C° 0.7 mm 9 mps 756 mmHg 74%
    07:00 +12°C° 0.7 mm 9 mps 756 mmHg 74%
    08:00 +12°C° 1.1 mm 9 mps 756 mmHg 74%
    09:00 +13°C° 1.1 mm 9 mps 756 mmHg 74%
    10:00 +13°C° 1.1 mm 9 mps 756 mmHg 74%
    11:00 +15°C° 2.1 mm 9 mps 756 mmHg 73%
    12:00 +16°C° 2.1 mm 10 mps 755 mmHg 72%
    13:00 +16°C° 2.1 mm 10 mps 755 mmHg 71%
    14:00 +16°C° 2.2 mm 10 mps 754 mmHg 73%
    15:00 +14°C° 2.2 mm 10 mps 754 mmHg 75%
    16:00 +14°C° 2.2 mm 10 mps 754 mmHg 77%
    17:00 +15°C° 3.3 mm 9 mps 754 mmHg 80%
    18:00 +13°C° 3.3 mm 8 mps 754 mmHg 83%
    19:00 +14°C° 3.3 mm 6 mps 755 mmHg 86%
    20:00 +14°C° 0.5 mm 6 mps 755 mmHg 87%
    21:00 +14°C° 0.5 mm 5 mps 756 mmHg 88%
    22:00 +13°C° 0.5 mm 5 mps 756 mmHg 88%
    23:00 +13°C° 0.3 mm 5 mps 756 mmHg 89%

    21 November, Wednesday

    Time Temperature Precipitation Wind Pressure Humidity
    00:00 +13°C° 0.3 mm 5 mps 756 mmHg 90%
    01:00 +13°C° 0.3 mm 4 mps 757 mmHg 90%
    02:00 +13°C° 0.1 mm 4 mps 757 mmHg 90%
    03:00 +13°C° 0.1 mm 4 mps 757 mmHg 90%
    04:00 +13°C° 0.1 mm 4 mps 757 mmHg 90%
    05:00 +13°C° 0.4 mm 4 mps 757 mmHg 90%
    06:00 +13°C° 0.4 mm 4 mps 758 mmHg 89%
    07:00 +13°C° 0.4 mm 3 mps 758 mmHg 89%
    08:00 +14°C° 0.5 mm 3 mps 758 mmHg 84%
    09:00 +16°C° 0.5 mm 3 mps 759 mmHg 79%
    10:00 +18°C° 0.5 mm 2 mps 759 mmHg 74%
    11:00 +18°C° 0 mm 2 mps 759 mmHg 71%
    12:00 +19°C° 0 mm 2 mps 759 mmHg 68%
    13:00 +20°C° 0 mm 2 mps 759 mmHg 65%
    14:00 +19°C° 0.1 mm 2 mps 759 mmHg 69%
    15:00 +18°C° 0.1 mm 2 mps 760 mmHg 73%
    16:00 +17°C° 0.1 mm 2 mps 760 mmHg 77%
    17:00 +16°C° 0.2 mm 2 mps 760 mmHg 80%
    18:00 +16°C° 0.2 mm 2 mps 761 mmHg 82%
    19:00 +15°C° 0.2 mm 2 mps 761 mmHg 84%
    20:00 +14°C° 0.1 mm 3 mps 761 mmHg 85%
    21:00 +13°C° 0.1 mm 3 mps 762 mmHg 86%
    22:00 +13°C° 0.1 mm 3 mps 762 mmHg 86%
    23:00 +13°C° 0.2 mm 3 mps 762 mmHg 86%

    22 November, Thursday

    Time Temperature Precipitation Wind Pressure Humidity
    00:00 +12°C° 0.2 mm 3 mps 762 mmHg 86%
    01:00 +12°C° 0.2 mm 3 mps 762 mmHg 87%
    02:00 +12°C° 0.4 mm 4 mps 762 mmHg 86%
    03:00 +12°C° 0.4 mm 4 mps 762 mmHg 85%
    04:00 +12°C° 0.4 mm 4 mps 762 mmHg 84%
    05:00 +12°C° 0.2 mm 4 mps 762 mmHg 83%
    06:00 +12°C° 0.2 mm 4 mps 763 mmHg 82%
    07:00 +12°C° 0.2 mm 4 mps 763 mmHg 80%
    08:00 +14°C° 0.1 mm 3 mps 763 mmHg 74%
    09:00 +17°C° 0.1 mm 3 mps 763 mmHg 67%
    10:00 +19°C° 0.1 mm 3 mps 763 mmHg 60%
    11:00 +19°C° 0.1 mm 3 mps 763 mmHg 59%
    12:00 +20°C° 0.1 mm 3 mps 763 mmHg 58%
    13:00 +20°C° 0.1 mm 3 mps 763 mmHg 57%
    14:00 +19°C° 0.1 mm 3 mps 763 mmHg 63%
    15:00 +18°C° 0.1 mm 2 mps 763 mmHg 69%
    16:00 +17°C° 0.1 mm 2 mps 763 mmHg 75%
    17:00 +16°C° 0.1 mm 2 mps 763 mmHg 78%
    18:00 +16°C° 0.1 mm 2 mps 764 mmHg 81%
    19:00 +15°C° 0.1 mm 1 mps 764 mmHg 85%
    20:00 +15°C° 0 mm 1 mps 764 mmHg 84%
    21:00 +14°C° 0 mm 2 mps 764 mmHg 84%
    22:00 +14°C° 0 mm 2 mps 764 mmHg 84%
    23:00 +14°C° 0.1 mm 2 mps 765 mmHg 83%
    Show more